Fort Bragg, NC

2:24 PM EDT on April 22, 2018 (GMT -0400)
Simmons Army Air Field

Weather History for KFBG - February, 2012

Change the Weather History Date:

Sunday, February 19, 2012

  Actual Average Record
Temperature  
Mean Temperature 44 °F -  
Max Temperature 53 °F 56 °F 78 °F (2000)
Min Temperature 34 °F 35 °F 15 °F (2015)
Degree Days  
Heating Degree Days 21    
Moisture  
Dew Point 43 °F    
Average Humidity 94    
Maximum Humidity 100    
Minimum Humidity 72    
Precipitation  
Precipitation 1.05 in - - ()
Sea Level Pressure  
Sea Level Pressure 29.83 in    
Wind  
Wind Speed 8 mph (NE)    
Max Wind Speed 16 mph    
Max Gust Speed 25 mph    
Visibility 6 miles    
Events Rain    
Averages and records for this station are not official NWS values.
T = Trace of Precipitation, MM = Missing Value Source: NWS Daily Summary

Daily Weather History Graph

Daily Weather History Graph

Search for Another Location

Airport or City:

Astronomy

Feb. 19, 2012 Rise Set
Actual Time 6:58 AM EST 6:01 PM EST
Civil Twilight 6:32 AM EST 6:27 PM EST
Nautical Twilight 6:02 AM EST 6:57 PM EST
Astronomical Twilight 5:33 AM EST 7:26 PM EST
Moon 5:14 AM EST (2/19) 4:04 PM EST (2/19)
Length of Visible Light 11h 55m
Length of Day
11h 03m
Waning Crescent, 5% of the Moon is Illuminated
Feb 19
Waning Crescent
Feb 21
New
Feb 29
First Quarter
Mar 8
Full
Mar 14
Last Quarter

Hourly Weather History & Observations

Time (EST) Temp. Windchill Dew Point Humidity Pressure Visibility Wind Dir Wind Speed Gust Speed Precip Events Conditions
12:55 AM 51.8 °F - 44.1 °F 75% 29.94 in 10.0 mi ENE 3.5 mph - N/A   Clear
1:05 AM 53.6 °F - 44.6 °F 72% 29.93 in 10.0 mi Calm Calm - N/A   Light Drizzle
1:55 AM 51.6 °F - 46.9 °F 84% 29.92 in 10.0 mi Calm Calm - 0.00 in Rain Light Rain
2:35 AM 50.0 °F - 50.0 °F 100% 29.93 in 8.0 mi Calm Calm - N/A Rain Light Rain
2:39 AM 51.8 °F - 50.0 °F 94% 29.93 in 8.0 mi Calm Calm - N/A Rain Light Rain
2:55 AM 51.3 °F - 49.5 °F 94% 29.93 in 7.0 mi Calm Calm - 0.04 in Rain Light Rain
3:55 AM 50.0 °F - 49.5 °F 98% 29.90 in 6.0 mi Calm Calm - 0.09 in Rain Light Rain
4:32 AM 51.8 °F - 50.0 °F 94% 29.87 in 8.0 mi ENE 4.6 mph - N/A   Mostly Cloudy
4:38 AM 51.8 °F - 50.0 °F 94% 29.88 in 8.0 mi ENE 6.9 mph - N/A Rain Light Rain
4:45 AM 51.8 °F - 51.8 °F 100% 29.87 in 7.0 mi ENE 8.1 mph - N/A Rain Light Rain
4:55 AM 51.3 °F - 51.1 °F 99% 29.85 in 7.0 mi ENE 10.4 mph - 0.02 in Rain Light Rain
5:12 AM 51.8 °F - 50.0 °F 94% 29.84 in 10.0 mi East 11.5 mph - N/A   Overcast
5:27 AM 51.8 °F - 48.2 °F 88% 29.85 in 10.0 mi ENE 9.2 mph - N/A Rain Light Rain
5:37 AM 51.8 °F - 48.2 °F 88% 29.86 in 10.0 mi ENE 8.1 mph - N/A Rain Light Rain
5:55 AM 51.6 °F - 48.9 °F 90% 29.87 in 10.0 mi NE 6.9 mph - 0.01 in Rain Light Rain
6:55 AM 51.4 °F - 49.6 °F 94% 29.88 in 10.0 mi ENE 4.6 mph - 0.00 in   Overcast
7:06 AM 51.8 °F - 50.0 °F 94% 29.88 in 10.0 mi NE 4.6 mph - N/A Rain Light Rain
7:16 AM 51.8 °F - 50.0 °F 94% 29.88 in 10.0 mi ENE 5.8 mph - N/A Rain Light Rain
7:20 AM 51.8 °F - 50.0 °F 94% 29.88 in 10.0 mi NE 6.9 mph - N/A   Overcast
7:26 AM 51.8 °F - 50.0 °F 94% 29.89 in 7.0 mi NE 5.8 mph - N/A Rain Light Rain
7:39 AM 51.8 °F - 50.0 °F 94% 29.90 in 4.0 mi NE 4.6 mph - N/A Rain Light Rain
7:47 AM 51.8 °F - 50.0 °F 94% 29.90 in 2.0 mi NE 5.8 mph - N/A Rain Light Rain
7:55 AM 50.9 °F - 50.4 °F 98% 29.90 in 2.0 mi Variable 5.8 mph - 0.02 in Rain Light Rain
7:59 AM 50.0 °F - 50.0 °F 100% 29.90 in 2.5 mi NE 9.2 mph - N/A Rain Light Rain
8:01 AM 50.0 °F - 50.0 °F 100% 29.90 in 2.5 mi NNE 9.2 mph - N/A Rain Light Rain
8:34 AM 50.0 °F - 48.2 °F 94% 29.90 in 4.0 mi NE 12.7 mph 17.3 mph N/A Rain Light Rain
8:55 AM 48.7 °F - 48.0 °F 97% 29.90 in 4.0 mi NE 13.8 mph 20.7 mph 0.02 in Rain Light Rain
9:16 AM 48.2 °F - 46.4 °F 93% 29.91 in 5.0 mi East 12.7 mph - N/A   Overcast
9:20 AM 46.4 °F 40.1 °F 46.4 °F 100% 29.90 in 5.0 mi ENE 15.0 mph - N/A Rain Light Rain
9:29 AM 46.4 °F 41.9 °F 44.6 °F 93% 29.91 in 4.0 mi ENE 9.2 mph - N/A   Light Drizzle
9:55 AM 45.0 °F 39.3 °F 43.5 °F 95% 29.91 in 4.0 mi NE 11.5 mph 19.6 mph 0.02 in Rain Light Rain
9:57 AM 44.6 °F 37.8 °F 42.8 °F 93% 29.91 in 6.0 mi NE 15.0 mph - N/A Rain Light Rain
9:58 AM 44.6 °F 38.8 °F 42.8 °F 93% 29.91 in 6.0 mi NE 11.5 mph - N/A Rain Light Rain
10:13 AM 44.6 °F 38.1 °F 42.8 °F 93% 29.90 in 4.0 mi NE 13.8 mph 19.6 mph N/A Rain Light Rain
10:35 AM 44.6 °F 38.4 °F 42.8 °F 93% 29.89 in 2.5 mi NNE 12.7 mph 17.3 mph N/A Rain Light Rain
10:43 AM 44.6 °F 38.8 °F 42.8 °F 93% 29.89 in 2.5 mi NE 11.5 mph 23.0 mph N/A Rain Light Rain
10:55 AM 43.9 °F 37.9 °F 42.8 °F 96% 29.88 in 2.5 mi NE 11.5 mph - 0.02 in Rain Light Rain
10:57 AM 44.6 °F 38.4 °F 42.8 °F 93% 29.88 in 2.5 mi NE 12.7 mph - N/A Rain Light Rain
11:07 AM 44.6 °F 38.8 °F 42.8 °F 93% 29.87 in 2.5 mi NNE 11.5 mph 18.4 mph N/A Rain Light Rain
11:11 AM 44.6 °F 38.8 °F 42.8 °F 93% 29.87 in 2.5 mi NE 11.5 mph 18.4 mph N/A Rain Light Rain
11:15 AM 44.6 °F 39.2 °F 42.8 °F 93% 29.87 in 2.5 mi NE 10.4 mph 18.4 mph N/A   Overcast
11:55 AM 43.2 °F 36.6 °F 42.1 °F 96% 29.85 in 2.5 mi NE 12.7 mph 20.7 mph 0.03 in   Overcast
12:01 PM 42.8 °F 38.0 °F 42.8 °F 100% 29.86 in 2.5 mi NE 8.1 mph 20.7 mph N/A   Overcast
12:04 PM 42.8 °F 35.8 °F 42.8 °F 100% 29.85 in 3.0 mi NE 13.8 mph 20.7 mph N/A   Overcast
12:16 PM 42.8 °F 38.0 °F 42.8 °F 100% 29.85 in 2.5 mi NE 8.1 mph - N/A   Overcast
12:24 PM 42.8 °F 36.2 °F 41.0 °F 93% 29.85 in 2.0 mi NE 12.7 mph 18.4 mph N/A   Overcast
12:34 PM 42.8 °F 35.1 °F 41.0 °F 93% 29.83 in 2.5 mi ENE 16.1 mph 21.9 mph N/A Rain Light Rain
12:38 PM 42.8 °F 37.0 °F 41.0 °F 93% 29.84 in 2.5 mi NE 10.4 mph 21.9 mph N/A Rain Rain
12:39 PM 42.8 °F 37.5 °F 41.0 °F 93% 29.84 in 3.0 mi NE 9.2 mph 21.9 mph N/A Rain Rain
12:55 PM 42.6 °F 34.9 °F 41.5 °F 96% 29.82 in 4.0 mi NE 16.1 mph - 0.09 in Rain Rain
1:05 PM 42.8 °F 37.5 °F 41.0 °F 93% 29.81 in 3.0 mi NNE 9.2 mph 19.6 mph N/A Rain Rain
1:21 PM 42.8 °F 36.6 °F 41.0 °F 93% 29.79 in 5.0 mi NNE 11.5 mph 21.9 mph N/A Rain Rain
1:30 PM 42.8 °F 35.8 °F 41.0 °F 93% 29.79 in 5.0 mi NE 13.8 mph 21.9 mph N/A Rain Rain
1:44 PM 41.0 °F 33.9 °F 41.0 °F 100% 29.78 in 6.0 mi NE 12.7 mph - N/A Rain Light Rain
1:55 PM 41.4 °F 34.0 °F 40.3 °F 96% 29.76 in 8.0 mi NE 13.8 mph - 0.16 in Rain Light Rain
1:59 PM 41.0 °F 33.5 °F 41.0 °F 100% 29.74 in 2.0 mi NNE 13.8 mph 25.3 mph N/A Rain Heavy Rain
2:09 PM 41.0 °F 32.8 °F 39.2 °F 93% 29.74 in 3.0 mi NE 16.1 mph 21.9 mph N/A Rain Light Rain
2:27 PM 41.0 °F 34.3 °F 39.2 °F 93% 29.73 in 8.0 mi NE 11.5 mph 24.2 mph N/A Rain Light Rain
2:31 PM 41.0 °F 32.8 °F 39.2 °F 93% 29.73 in 10.0 mi NE 16.1 mph 25.3 mph N/A   Overcast
2:35 PM 41.0 °F 32.8 °F 39.2 °F 93% 29.71 in 10.0 mi NE 16.1 mph 25.3 mph N/A Rain Light Rain
2:55 PM 40.8 °F 33.3 °F 39.2 °F 94% 29.72 in 5.0 mi NE 13.8 mph 19.6 mph 0.14 in Rain Rain
2:56 PM 41.0 °F 33.9 °F 39.2 °F 93% 29.71 in 2.5 mi NE 12.7 mph 18.4 mph N/A Rain Heavy Rain
3:08 PM 41.0 °F 33.5 °F 39.2 °F 93% 29.70 in 1.0 mi NE 13.8 mph 19.6 mph N/A Rain Heavy Rain
3:14 PM 41.0 °F 33.9 °F 39.2 °F 93% 29.71 in 1.5 mi NE 12.7 mph - N/A Rain Light Rain
3:16 PM 41.0 °F 33.5 °F 39.2 °F 93% 29.72 in 2.0 mi NE 13.8 mph 21.9 mph N/A Rain Light Rain
3:26 PM 41.0 °F 35.2 °F 39.2 °F 93% 29.73 in 5.0 mi NE 9.2 mph 21.9 mph N/A Rain Light Rain
3:35 PM 41.0 °F 35.2 °F 39.2 °F 93% 29.74 in 9.0 mi NE 9.2 mph - N/A   Overcast
3:55 PM 40.5 °F 33.6 °F 39.0 °F 95% 29.74 in 10.0 mi North 11.5 mph - 0.20 in   Overcast
4:10 PM 41.0 °F 33.5 °F 39.2 °F 93% 29.72 in 10.0 mi NE 13.8 mph 18.4 mph N/A   Overcast
4:35 PM 41.0 °F 34.3 °F 39.2 °F 93% 29.73 in 10.0 mi North 11.5 mph 18.4 mph N/A   Overcast
4:55 PM 40.1 °F 34.1 °F 38.5 °F 94% 29.74 in 10.0 mi North 9.2 mph 19.6 mph 0.02 in Rain Light Rain
5:32 PM 39.2 °F 32.5 °F 37.4 °F 93% 29.74 in 10.0 mi North 10.4 mph - N/A   Overcast
5:55 PM 39.4 °F 32.3 °F 37.8 °F 94% 29.73 in 10.0 mi NNE 11.5 mph - 0.08 in   Overcast
6:41 PM 39.2 °F 32.0 °F 37.4 °F 93% 29.74 in 10.0 mi NNE 11.5 mph 18.4 mph N/A   Overcast
6:55 PM 39.2 °F 31.6 °F 37.0 °F 92% 29.73 in 10.0 mi NNE 12.7 mph - N/A   Overcast
7:18 PM 39.2 °F 33.0 °F 37.4 °F 93% 29.74 in 10.0 mi NNE 9.2 mph 23.0 mph N/A   Overcast
7:36 PM 39.2 °F 32.5 °F 37.4 °F 93% 29.75 in 10.0 mi North 10.4 mph - N/A Rain Light Rain
7:55 PM 38.5 °F 31.6 °F 36.7 °F 93% 29.77 in 10.0 mi North 10.4 mph - 0.03 in Rain Light Rain
8:25 PM 37.4 °F 29.3 °F 37.4 °F 100% 29.81 in 9.0 mi NNW 12.7 mph - N/A Rain Light Rain
8:55 PM 37.6 °F 30.0 °F 36.3 °F 95% 29.82 in 10.0 mi NNW 11.5 mph - 0.05 in   Overcast
9:31 PM 37.4 °F 28.5 °F 35.6 °F 93% 29.84 in 10.0 mi NNW 15.0 mph 21.9 mph N/A   Overcast
9:55 PM 36.1 °F 27.7 °F 34.0 °F 92% 29.85 in 10.0 mi NNW 12.7 mph 24.2 mph 0.01 in   Overcast
10:55 PM 35.2 °F 26.2 °F 32.9 °F 91% 29.87 in 10.0 mi North 13.8 mph 18.4 mph N/A   Overcast
11:36 PM 35.6 °F 28.6 °F 32.0 °F 87% 29.87 in 10.0 mi North 9.2 mph - N/A   Overcast
11:42 PM 35.6 °F 28.0 °F 32.0 °F 87% 29.88 in 10.0 mi North 10.4 mph 18.4 mph N/A   Overcast
11:55 PM 34.9 °F 27.1 °F 32.7 °F 92% 29.88 in 10.0 mi North 10.4 mph 18.4 mph 0.00 in   Overcast